TimeEET,TemperatureF,Dew PointF,Humidity,Sea Level PressureIn,VisibilityMPH,Wind Direction,Wind SpeedMPH,Gust SpeedMPH,PrecipitationIn,Events,Conditions,WindDirDegrees,DateUTC
12:50 AM,44.6,39.2,81,29.80,6.2,Calm,Calm,-,N/A,,Mostly Cloudy,0,2013-02-10 22:50:00
1:50 AM,42.8,37.4,81,29.80,6.2,Calm,Calm,-,N/A,,Partly Cloudy,0,2013-02-10 23:50:00
2:50 AM,41.0,37.4,87,29.80,6.2,Calm,Calm,-,N/A,,Partly Cloudy,0,2013-02-11 00:50:00
3:50 AM,39.2,37.4,93,29.80,6.2,Calm,Calm,-,N/A,,Partly Cloudy,0,2013-02-11 01:50:00
4:50 AM,41.0,37.4,87,29.80,6.2,Calm,Calm,-,N/A,,Partly Cloudy,0,2013-02-11 02:50:00
5:20 AM,42.8,37.4,81,29.80,6.2,Calm,Calm,-,N/A,,Partly Cloudy,0,2013-02-11 03:20:00
5:50 AM,44.6,35.6,71,29.80,6.2,Calm,Calm,-,N/A,,Partly Cloudy,0,2013-02-11 03:50:00
6:20 AM,44.6,35.6,71,29.80,6.2,Calm,Calm,-,N/A,,Partly Cloudy,0,2013-02-11 04:20:00
6:50 AM,42.8,33.8,70,29.80,6.2,WNW,5.8,-,N/A,,Partly Cloudy,300,2013-02-11 04:50:00
7:20 AM,42.8,33.8,70,29.83,6.2,West,4.6,-,N/A,,Partly Cloudy,270,2013-02-11 05:20:00
7:50 AM,46.4,35.6,66,29.83,6.2,NW,9.2,-,N/A,,Partly Cloudy,320,2013-02-11 05:50:00
8:20 AM,46.4,35.6,66,29.83,6.2,NW,8.1,-,N/A,,Partly Cloudy,320,2013-02-11 06:20:00
8:50 AM,48.2,35.6,62,29.86,6.2,NW,11.5,-,N/A,,Partly Cloudy,310,2013-02-11 06:50:00
9:20 AM,50.0,35.6,58,29.89,6.2,WNW,12.7,24.2,N/A,,Scattered Clouds,300,2013-02-11 07:20:00
9:50 AM,50.0,35.6,58,29.89,6.2,NW,12.7,-,N/A,,Scattered Clouds,320,2013-02-11 07:50:00
10:20 AM,51.8,33.8,50,29.89,6.2,NW,11.5,-,N/A,,Scattered Clouds,310,2013-02-11 08:20:00
10:50 AM,51.8,33.8,50,29.89,6.2,NW,12.7,-,N/A,,Scattered Clouds,320,2013-02-11 08:50:00
11:20 AM,51.8,32.0,47,29.92,6.2,WNW,10.4,-,N/A,,Scattered Clouds,300,2013-02-11 09:20:00
11:50 AM,51.8,32.0,47,29.92,6.2,NW,8.1,-,N/A,,Scattered Clouds,310,2013-02-11 09:50:00
12:20 PM,53.6,35.6,51,29.92,6.2,NW,8.1,-,N/A,,Scattered Clouds,310,2013-02-11 10:20:00
12:50 PM,53.6,35.6,51,29.92,6.2,West,12.7,-,N/A,,Scattered Clouds,280,2013-02-11 10:50:00
1:20 PM,55.4,35.6,47,29.92,6.2,WNW,11.5,-,N/A,,Scattered Clouds,290,2013-02-11 11:20:00
1:50 PM,55.4,33.8,44,29.92,6.2,West,12.7,-,N/A,,Scattered Clouds,280,2013-02-11 11:50:00
2:20 PM,53.6,33.8,47,29.92,6.2,West,11.5,-,N/A,,Scattered Clouds,260,2013-02-11 12:20:00
2:50 PM,55.4,33.8,44,29.92,6.2,West,17.3,-,N/A,,Scattered Clouds,260,2013-02-11 12:50:00
3:20 PM,55.4,33.8,44,29.92,6.2,WSW,15.0,-,N/A,,Scattered Clouds,250,2013-02-11 13:20:00
3:50 PM,53.6,30.2,41,29.92,6.2,WSW,11.5,23.0,N/A,,Scattered Clouds,250,2013-02-11 13:50:00
4:20 PM,53.6,30.2,41,29.95,6.2,WSW,11.5,23.0,N/A,,Scattered Clouds,250,2013-02-11 14:20:00
4:50 PM,53.6,30.2,41,29.95,6.2,West,15.0,-,N/A,,Scattered Clouds,260,2013-02-11 14:50:00
5:20 PM,53.6,30.2,41,29.95,6.2,West,11.5,-,N/A,,Scattered Clouds,260,2013-02-11 15:20:00
5:50 PM,51.8,32.0,47,29.98,6.2,West,9.2,-,N/A,,Partly Cloudy,280,2013-02-11 15:50:00
6:20 PM,50.0,32.0,50,29.98,6.2,WNW,5.8,-,N/A,,Partly Cloudy,290,2013-02-11 16:20:00
6:50 PM,48.2,33.8,58,30.01,6.2,Variable,3.5,-,N/A,,Partly Cloudy,0,2013-02-11 16:50:00
7:20 PM,48.2,32.0,54,30.01,6.2,North,6.9,-,N/A,,Partly Cloudy,10,2013-02-11 17:20:00
7:50 PM,48.2,32.0,54,30.01,6.2,North,8.1,-,N/A,,Partly Cloudy,10,2013-02-11 17:50:00
8:20 PM,46.4,33.8,62,30.04,6.2,North,5.8,-,N/A,,Partly Cloudy,350,2013-02-11 18:20:00
8:50 PM,46.4,33.8,62,30.04,6.2,Calm,Calm,-,N/A,,Partly Cloudy,0,2013-02-11 18:50:00
9:20 PM,46.4,33.8,62,30.04,6.2,NNW,3.5,-,N/A,,Partly Cloudy,340,2013-02-11 19:20:00
9:50 PM,42.8,33.8,70,30.04,-9999.0,NE,3.5,-,N/A,,Clear,40,2013-02-11 19:50:00
10:20 PM,44.6,33.8,66,30.04,-9999.0,North,3.5,-,N/A,,Clear,360,2013-02-11 20:20:00
10:50 PM,44.6,33.8,66,30.04,-9999.0,North,4.6,-,N/A,,Clear,350,2013-02-11 20:50:00
11:50 PM,42.8,33.8,70,30.04,-9999.0,NNE,3.5,-,N/A,,Clear,30,2013-02-11 21:50:00